Location: Brussels Street
(14.6052°N, 121.0973°E)
Time: 00:44:06
(UTC+00:00)

Daily predictions for brighter satellites

Satellite Brightness Start Highest point End
(mag) Time Altitude Azimuth Time Altitude Azimuth Time Altitude Azimuth
Cosmos 1725 Rocket 4.3 09:37:38 10° S 09:43:49 75° W 09:50:02 10° N
ARIANE 3 DEB 4.4 09:45:58 10° SSW 09:47:04 12° S 09:48:15 10° SE
Cosmos 1452 Rocket 3.5 09:41:50 10° NNW 09:47:04 89° E 09:52:18 10° SSE
OAO 2 Rocket 4.2 09:43:42 10° WSW 09:48:32 44° NNW 09:53:27 10° NE
Cosmos 2278 Rocket 3.4 09:45:04 10° SSE 09:49:14 21° ESE 09:53:23 10° NE
BREEZE M DEB (TANK) 3.7 09:36:01 10° NW 09:49:24 61° NE 09:53:13 10° ESE
Cosmos 1025 Rocket 3.1 09:46:48 10° N 09:50:59 53° E 09:55:09 10° SSE
SWARM A 4.2 09:50:26 10° N 09:53:44 87° W 09:57:02 10° S
Cosmos 2233 Rocket 4.0 09:48:32 10° S 09:54:45 86° E 10:01:02 10° N
MOS 1 Rocket 3.7 09:50:58 10° SE 09:54:52 34° ENE 09:58:42 10° NNE
Cosmos 1782 Rocket 3.6 09:53:15 10° S 09:57:39 90° E 10:02:05 10° N
Cosmos 1812 4.3 10:02:05 10° ESE 10:02:16 10° ESE 10:02:16 10° ESE
H-2A R/B 0.2 10:02:46 10° WSW 10:04:33 54° NNW 10:06:04 16° NE
ARIANE 5 R/B 3.8 09:54:58 10° W 10:08:15 38° SSW 10:11:58 10° SE
IRS-P3 4.1 10:03:03 10° SSE 10:08:21 77° ENE 10:13:39 10° N
Cosmos 44 Rocket 4.4 10:05:55 10° SSE 10:09:25 22° ESE 10:11:31 16° ENE
ISS -3.7 10:06:16 10° SSW 10:09:31 58° SE 10:11:56 17° NE
CZ-2D R/B 4.4 10:07:43 10° S 10:10:42 38° W 10:13:40 10° NNW
Ariane H10-3 3.5 10:11:51 10° SW 10:14:08 24° SSE 10:19:20 10° ESE
SL-8 R/B 4.4 10:09:56 10° NW 10:14:32 56° SW 10:19:08 10° SSE
Cosmos 1441 Rocket 3.4 10:12:41 10° NNE 10:15:45 35° E 10:18:51 10° SSE
SPOT 1/Viking Rocket 3.7 10:13:08 10° SSE 10:18:03 49° ENE 10:22:59 10° N
COSMO-SKYMED 1 3.3 10:14:31 10° N 10:18:31 51° WNW 10:22:30 10° SSW
ARIANE 5 R/B 3.6 10:13:55 10° S 10:18:44 47° WSW 10:23:31 10° NNW
Cosmos 1943 Rocket 2.3 10:19:11 10° S 10:24:41 55° ESE 10:29:55 11° NNE
Tsikada Rocket 4.0 10:21:02 10° N 10:27:23 70° E 10:33:40 10° S
IRAS Rocket 4.2 10:27:39 10° SSE 10:33:10 61° ENE 10:38:39 10° N
Cosmos 1869 3.0 10:30:16 10° S 10:33:51 80° W 10:37:25 10° N
SJ-7 4.1 10:30:18 10° SSE 10:33:58 60° ENE 10:37:36 10° N
Cosmos 1975 Rocket 3.4 10:32:12 10° NNE 10:36:17 40° E 10:40:22 10° SSE
DMSP B5D1-3 4.4 10:31:25 10° NNE 10:36:32 90° WNW 10:41:37 10° SSW
PSLV R/B 3.2 10:41:12 10° SSE 10:45:18 77° ENE 10:49:23 10° N
GPS 2-12 Rocket1 3.6 10:41:16 10° WNW 10:45:39 42° N 10:46:30 38° NNE
SL-19 R/B 4.1 10:40:11 10° SSE 10:45:43 70° ENE 10:51:00 10° N
Timation 2 Rocket 4.3 10:40:20 10° SSW 10:46:58 73° WNW 10:53:48 10° NNE
Cosmos 1190 Rocket 4.3 10:42:44 10° S 10:47:42 43° E 10:48:19 42° E
Cosmos 1513 Rocket 4.5 10:42:32 10° S 10:48:43 84° W 10:55:00 10° N
Okean 2 Rocket 4.4 10:45:42 10° SSE 10:47:50 24° SE 10:47:50 24° SE
USA 215 4.4 10:46:04 10° SSE 10:52:11 43° SW 10:58:19 10° NW
Orbus 21S 4.1 10:54:09 10° NW 10:54:56 14° NNW 10:54:56 14° NNW
Spot 4 Rocket 4.3 10:53:52 10° S 10:58:54 65° WSW 11:03:56 10° NNW
Atlas Centaur 2 4.2 10:55:44 10° WSW 10:59:24 20° SSW 11:03:40 10° SSE
Aureole 3 Rocket 4.3 10:55:40 10° SSW 11:00:18 41° W 11:03:49 10° NNW
Resurs 1-3 3.8 10:56:35 10° S 11:00:50 69° W 11:05:06 10° NNW
FUSE 4.3 10:55:41 10° W 11:00:52 52° NNW 11:01:54 45° NNE
VEP-3 3.0 10:55:17 10° WNW 11:01:40 50° NNE 11:02:56 43° NE
Cosmos 1954 Rocket 4.3 11:00:33 10° S 11:04:51 48° SE 11:04:51 48° SE
Meteor 2-12 Rocket 4.2 11:01:03 10° N 11:07:07 77° E 11:13:09 10° S
ATLAS 2A CENTAUR R/B 3.4 11:00:09 10° W 11:11:22 40° NNW 11:12:24 36° N
YAOGAN 1 3.7 11:08:09 10° S 11:12:09 41° W 11:16:09 10° NNW
Mugunghwa Rocket 4.0 11:12:03 10° WNW 11:18:47 82° NNE 11:19:51 66° E
NOAA 6 4.3 11:13:42 10° S 11:18:48 68° WSW 11:23:55 10° NNW
Cosmos 2251 Rocket 4.3 11:24:16 10° SSW 11:29:15 47° WNW 11:30:21 41° NW
Cosmos 2278 Rocket 3.9 11:28:10 10° SW 11:32:58 29° WNW 11:36:40 15° NNW
USA 234 3.2 11:37:20 73° NNW 11:37:43 75° NW 11:44:13 10° SW
Aurora 2 Rocket 3.9 11:38:45 10° WSW 11:47:30 82° W 11:47:30 82° W
Cosmos 2034 Rocket 4.5 11:42:48 10° SSW 11:48:35 56° W 11:48:35 56° W
